P/2008 S1 ( Catalina-McNaught )

Japanese version
Home page
Total 6,336 html files since Dec. 4, 1995
Updated on September 30, 2008

---------------------------------------------------------------------

* Profile

Discovery Date May 2 and September 17, 2008
Magnitude 19.8 mag, 16.6 mag
Discoverer A. Boattini (Catalina Sky Survey), R. H. McNaught (Siding Spring Survey)

* Orbital Elements

Epoch 2008 Oct. 21.0 TT = JDT 2454760.5
T 2008 Oct. 1.81600 TT                                  MPC
q   1.1905188            (2000.0)            P               Q
n   0.14572536     Peri.  203.61414     +0.69409131     +0.67774004
a   3.5763989      Node   111.37589     -0.61197114     +0.73304780
e   0.6671180      Incl.   15.10769     -0.37911553     +0.05752699
P   6.76

* Finding Charts

* Magnitudes Graph

        m1 = 16.0 + 5 log d + 10.0 log r

---------------------------------------------------------------------

The orbital elements are published on M.P.E.C. 2008-S77.
The charts are made with StellaNavigator Ver.8 (AstroArts).
The magnitudes graphs are made with Comet for Windows.

---------------------------------------------------------------------

Copyright(C) 1995-2008 Seiichi Yoshida (comet@aerith.net). All rights reserved.